RH
11 16 21 29 34 35 29 20 18 13 7 4 3 3 3 3 2 1 1 1 2 2 2 3 3 4 4 4 3 3 3 3 3 3 3 3 3 4 4 4 4 5 5 5 5 5 5 5 5 5 5 5 5 5 5 6 6 6 5 5 6 7 7 7 7 7 7 7 7 7 7 7 7 7 7 7 7 6 7 6 6 6 6 8 9 10 12 13
18 26 32 37 41 42 36 32 33 29 22 13 7 5 3 2 1 2 2 1 2 2 3 3 4 4 4 4 4 3 3 3 3 3 3 3 4 4 4 5 5 5 5 5 5 5 5 5 5 5 5 5 5 6 6 6 7 6 6 6 6 7 7 7 7 6 7 7 7 7 7 7 7 7 7 7 7 7 6 6 6 6 7 8 10 12 13 14
23 33 35 33 40 45 44 43 43 41 37 30 22 12 6 5 3 2 3 2 2 2 3 3 4 4 4 4 4 3 3 3 3 3 3 4 4 4 5 5 5 5 5 5 5 5 5 5 6 5 5 6 5 6 6 6 7 7 7 7 6 7 7 7 6 7 7 7 7 7 8 7 7 7 7 7 7 7 7 7 7 7 8 9 10 13 15 16
21 28 29 27 37 46 48 49 47 44 41 39 34 20 9 6 3 2 3 3 3 4 3 4 4 4 4 4 4 4 3 3 3 4 4 4 4 5 5 5 5 5 5 5 5 5 6 6 6 6 6 6 6 6 6 6 6 7 7 7 7 7 7 7 7 7 7 8 8 8 8 8 8 8 7 8 7 7 7 7 7 8 8 9 11 14 17 18
18 22 25 27 34 43 49 51 47 42 41 41 37 27 13 5 2 2 3 3 4 5 4 4 4 4 4 4 4 3 3 4 4 4 4 5 5 5 5 5 5 5 6 5 6 6 6 6 6 6 6 6 7 6 6 7 7 7 7 7 7 7 7 7 8 8 8 8 8 8 9 9 9 8 8 8 8 8 8 8 8 8 8 9 11 14 18 19
21 19 24 28 30 40 45 45 45 41 42 41 35 31 22 12 7 4 2 3 3 4 4 4 4 4 3 4 4 4 6 5 4 4 5 5 5 5 6 6 6 6 6 6 6 6 6 6 6 6 7 7 7 7 7 7 7 7 7 8 8 8 8 8 8 8 9 9 9 10 10 10 9 9 9 8 9 10 10 9 9 8 9 10 11 15 19 21
28 21 23 26 26 33 36 38 44 42 42 42 39 39 28 15 11 5 2 3 4 4 4 4 3 4 4 4 5 5 6 5 4 5 5 6 6 6 6 6 6 6 6 6 6 6 6 7 6 6 6 7 7 7 7 7 8 8 8 8 8 8 8 9 9 9 10 10 11 11 11 11 10 10 9 9 11 11 10 10 10 10 9 10 11 14 20 23
36 28 23 23 23 28 30 36 45 43 40 42 44 42 28 15 10 5 3 3 4 5 5 4 4 5 5 5 5 4 4 4 5 5 6 6 6 6 6 6 6 6 7 7 7 7 7 7 6 7 6 7 7 7 8 8 8 8 8 8 8 9 9 10 11 11 12 12 12 12 12 12 11 11 10 10 12 12 11 12 11 10 10 11 12 14 20 25
39 35 27 24 27 27 25 31 40 42 42 42 44 41 31 20 10 4 3 3 4 5 5 5 6 5 5 5 4 4 4 5 5 6 6 6 6 6 6 6 6 6 7 6 7 7 6 6 6 7 7 7 8 8 9 9 9 9 9 9 9 10 11 12 13 13 14 14 14 14 14 13 13 13 11 12 13 12 12 12 11 11 10 12 13 14 20 26
39 39 33 27 30 28 23 27 37 44 46 46 44 38 28 15 5 3 2 3 5 5 5 5 5 5 4 4 4 5 5 6 6 7 7 7 7 7 7 7 7 7 7 7 7 7 7 7 7 7 8 8 8 9 9 9 9 10 10 10 11 11 12 13 13 14 15 16 16 16 15 14 14 13 13 13 13 13 12 12 11 11 11 13 14 14 20 27
41 40 39 33 30 28 26 30 37 44 44 41 40 31 17 6 1 3 3 3 5 5 5 5 5 5 5 5 5 5 6 7 7 7 7 7 7 7 7 7 7 7 7 7 7 7 7 7 8 8 8 9 9 10 10 10 11 11 11 11 12 12 13 14 14 16 17 17 17 17 16 14 14 15 14 14 13 14 14 14 13 13 13 14 15 15 19 26
46 40 40 39 33 30 31 32 34 41 42 37 34 19 6 3 2 3 4 5 5 5 5 5 5 5 5 5 5 6 6 7 7 8 8 8 8 7 7 7 7 8 7 8 7 7 8 8 9 8 9 9 10 10 10 11 12 12 12 12 13 13 14 15 16 17 17 18 19 19 16 12 15 17 16 15 14 15 16 16 15 15 15 16 16 16 18 25
51 43 41 39 35 33 35 34 32 41 47 45 39 17 2 2 2 3 5 5 5 5 5 5 5 5 5 6 6 6 7 8 8 8 8 7 8 7 7 8 7 8 8 8 8 8 9 9 9 9 10 10 11 11 12 12 13 13 13 14 14 14 15 16 17 18 18 19 19 22 19 11 15 19 17 17 16 16 17 18 17 17 17 18 17 17 18 23
51 46 43 36 30 34 37 34 34 44 50 49 43 21 4 2 2 3 4 5 5 5 5 5 5 5 6 6 6 7 7 8 8 8 8 8 8 8 8 8 8 9 9 9 9 9 9 10 10 10 10 11 12 12 13 14 14 14 14 14 15 16 16 17 19 19 19 21 20 23 21 12 15 19 19 19 17 17 19 20 20 19 20 20 18 18 20 24
51 45 44 36 28 32 35 27 27 39 44 46 38 18 5 2 2 3 4 6 6 5 5 5 5 5 6 6 6 8 8 8 9 8 8 8 8 8 8 9 9 9 9 9 10 10 10 11 11 11 11 12 13 13 14 14 15 16 15 15 17 18 18 19 21 21 21 22 20 24 22 13 15 20 22 21 18 19 20 21 21 21 21 21 19 19 23 27
45 43 41 40 33 29 29 25 27 35 42 47 35 11 3 3 2 4 5 6 6 5 6 5 6 6 6 7 7 8 8 8 9 9 8 9 9 9 9 9 10 10 10 10 10 11 11 11 12 12 12 12 13 14 15 15 15 16 17 17 18 19 20 20 21 22 23 23 22 25 23 15 15 20 22 22 20 21 20 20 22 22 22 20 20 23 27 29
34 38 35 37 38 33 30 30 36 41 43 51 40 11 1 4 3 5 6 7 6 6 6 6 6 6 6 7 8 8 9 9 9 9 9 9 10 9 10 10 11 11 11 11 11 12 11 12 12 12 13 13 14 15 15 16 17 18 18 19 20 20 21 21 22 22 23 23 22 25 23 16 16 19 21 22 22 22 20 20 22 22 21 22 24 27 29 28
26 30 28 28 33 37 38 36 40 45 45 52 42 12 2 5 5 6 7 7 7 6 6 6 6 7 8 7 8 8 8 9 9 10 10 10 10 10 10 10 11 11 11 12 12 12 13 12 12 13 14 14 15 16 17 17 18 19 21 21 21 21 21 22 24 23 23 24 22 24 22 15 15 18 20 22 23 21 20 20 22 22 23 25 26 27 27 26
24 23 23 23 26 31 40 44 45 48 50 49 31 8 4 6 6 7 7 6 6 6 6 6 6 9 11 8 8 9 9 10 9 10 10 10 11 10 11 10 11 11 11 12 12 13 13 13 13 13 14 15 16 17 17 18 19 20 21 22 24 22 20 22 24 23 24 24 20 22 21 14 15 18 20 21 20 20 20 21 23 24 24 24 24 24 24 22
25 25 19 19 26 27 33 46 52 52 48 35 15 5 7 7 7 7 7 7 6 6 6 6 7 10 11 8 8 9 9 10 10 10 10 10 11 10 11 11 11 12 12 12 12 13 13 13 14 14 15 16 16 17 18 19 20 21 22 22 23 23 20 21 23 22 24 24 20 21 21 14 15 18 19 19 19 20 21 23 24 22 22 21 21 21 20 19
29 34 23 14 22 25 28 41 49 44 31 15 5 6 8 7 8 8 7 7 6 6 6 7 8 9 9 8 9 10 10 10 10 10 10 10 11 10 11 11 11 12 12 12 13 13 13 14 14 15 16 16 17 17 18 19 20 21 22 21 21 23 21 20 22 22 24 25 21 21 20 14 15 18 19 19 19 21 22 23 22 20 20 19 19 19 18 18
31 39 29 12 15 25 30 31 28 20 11 6 6 7 9 8 8 9 9 8 6 6 7 8 9 9 9 8 9 10 10 10 10 11 11 11 11 10 11 11 11 12 12 12 13 13 14 14 15 16 17 17 17 17 18 19 21 21 22 22 21 22 22 22 22 23 24 25 21 21 21 16 14 16 18 19 19 22 23 22 20 18 19 19 19 19 19 18
32 43 33 10 10 21 23 19 13 11 10 10 10 9 9 9 8 10 10 8 7 7 7 9 10 10 9 8 9 9 10 10 10 11 11 11 11 10 11 11 11 11 12 12 13 14 14 15 16 16 17 17 17 18 18 19 20 22 23 23 23 23 25 25 24 24 25 25 23 23 22 18 16 16 18 20 20 22 24 23 21 19 18 19 19 19 18 18
31 43 32 12 12 14 13 16 16 15 12 10 11 11 10 9 10 10 9 7 8 7 7 8 9 9 8 8 9 9 10 10 10 11 11 11 11 10 11 11 11 11 12 12 13 14 14 14 15 15 17 17 18 18 19 20 20 22 24 24 25 25 27 27 27 26 25 24 23 23 23 20 17 18 19 21 22 23 24 25 24 20 19 19 20 20 20 20
27 36 28 24 30 20 12 20 22 18 12 9 10 10 10 10 10 9 8 8 7 7 7 7 7 7 7 8 9 9 10 10 10 10 11 11 10 11 11 11 12 12 12 12 13 13 13 14 14 15 16 17 18 19 19 21 21 22 24 25 26 27 27 27 28 28 27 26 25 25 31 28 18 17 20 21 23 25 25 26 26 22 21 21 22 23 23 24
26 38 37 43 46 27 15 20 21 16 12 10 11 11 11 10 10 9 9 9 8 8 7 8 9 9 9 9 8 9 9 10 11 11 11 11 11 11 11 12 12 12 12 12 13 13 13 14 14 15 16 17 17 19 20 22 22 23 24 24 27 28 28 29 29 29 30 30 28 28 35 34 20 16 21 22 23 25 25 26 26 23 22 24 25 26 28 29
25 37 38 42 39 22 16 16 16 15 12 12 12 12 11 10 11 10 9 10 10 10 9 9 9 10 12 12 11 10 10 11 11 11 11 11 11 11 11 12 12 12 13 13 13 13 13 14 14 15 16 16 17 19 20 22 24 25 24 26 28 28 29 30 29 30 31 31 30 28 31 35 26 18 21 23 23 24 23 25 26 24 24 26 29 31 33 33
22 27 23 25 21 14 15 14 14 15 14 13 12 12 12 11 11 10 10 11 10 11 11 10 9 10 11 11 12 12 11 11 11 12 12 11 11 12 12 12 12 13 12 13 14 13 13 14 15 16 15 17 18 19 21 23 25 25 25 27 28 29 30 29 28 30 32 32 32 29 29 35 30 19 20 23 22 23 25 26 27 24 25 28 30 34 36 38
16 17 14 15 14 13 15 13 14 14 13 14 12 12 12 12 11 10 11 11 11 13 13 13 12 10 10 9 10 11 10 10 11 11 11 11 11 11 12 12 12 12 12 13 14 13 14 15 16 16 16 18 19 20 22 23 25 26 27 28 29 30 28 27 29 31 33 36 34 30 29 36 33 19 19 25 22 24 27 27 27 26 27 29 31 35 39 46
14 14 14 14 13 13 13 12 13 12 12 13 12 12 12 11 11 12 12 10 12 14 13 14 13 11 11 10 10 10 9 9 10 10 10 10 11 11 12 12 11 12 12 13 14 14 15 15 16 16 17 19 20 21 23 23 26 26 27 29 29 28 26 28 32 29 36 44 38 30 28 36 40 25 19 25 25 27 29 26 27 27 28 31 33 38 45 55
14 14 13 13 13 12 12 12 12 11 11 11 11 11 11 10 12 12 12 11 11 13 13 13 13 12 11 10 10 10 9 10 9 9 9 9 10 11 11 12 12 13 13 13 14 14 15 16 16 17 17 20 20 22 23 24 26 26 28 31 28 28 27 30 32 30 41 51 39 31 31 37 43 30 20 26 27 28 28 26 27 29 31 34 37 44 52 59
14 13 12 11 12 12 12 12 11 11 10 9 9 9 10 11 11 10 10 10 10 12 12 12 12 12 11 10 10 9 9 9 8 9 9 9 10 10 10 11 12 13 14 14 15 15 16 15 16 17 18 20 21 22 23 24 26 27 29 30 30 36 40 44 47 42 45 47 36 33 38 38 37 28 22 26 26 26 27 26 29 32 34 36 40 47 54 57
13 13 12 10 11 11 12 11 11 10 9 8 8 8 10 12 10 10 10 11 10 11 13 12 12 11 11 9 9 9 10 10 9 9 9 9 9 9 10 11 12 14 15 15 16 18 18 16 16 18 19 20 21 21 24 25 27 29 30 29 32 43 55 64 65 55 47 44 37 39 45 39 30 24 24 27 27 28 30 30 32 35 37 38 41 46 52 54
12 13 11 9 10 10 11 11 10 10 8 7 7 7 10 11 10 10 10 11 11 12 12 12 11 10 10 9 8 9 10 10 9 9 9 10 10 10 10 11 12 13 15 17 19 20 21 20 18 18 19 20 21 22 24 26 28 29 29 29 31 36 44 53 58 52 47 47 45 44 44 36 27 25 26 27 29 31 32 34 36 38 40 42 44 47 50 49
11 12 11 9 9 9 11 11 10 9 7 7 6 6 8 9 9 10 10 11 11 12 11 11 10 9 8 9 9 9 11 11 10 10 10 10 11 11 11 11 12 14 16 18 19 21 23 22 19 19 21 20 21 23 24 26 29 29 28 30 32 35 35 40 47 44 45 58 60 48 40 32 27 27 28 28 30 31 34 36 38 40 42 43 45 47 48 45
8 11 11 10 9 9 10 10 9 8 6 6 6 6 7 7 9 10 11 12 12 11 11 10 10 9 9 9 9 9 11 11 11 11 11 11 11 12 12 13 14 15 16 18 20 22 23 22 20 21 22 21 22 24 25 26 28 30 30 32 33 36 37 40 43 41 48 65 62 43 35 33 30 31 30 29 31 32 35 38 40 42 42 42 45 46 44 42
6 8 9 9 9 9 10 9 8 6 5 6 6 6 7 8 9 10 11 11 11 10 10 10 10 10 11 10 10 11 11 12 12 12 12 11 12 12 13 14 15 15 17 19 21 22 23 23 22 22 22 22 23 24 24 26 28 30 31 33 33 36 40 42 45 52 63 71 60 40 36 37 36 35 32 31 34 35 38 40 40 40 40 43 45 43 40 38
5 5 6 7 8 8 9 8 6 6 6 6 7 7 8 8 9 9 10 9 9 10 10 11 11 12 12 12 11 12 12 12 13 12 13 13 13 14 14 14 15 16 17 19 21 23 24 25 24 24 23 23 23 25 25 25 27 30 31 33 34 38 42 43 48 57 65 72 66 49 39 38 37 38 36 35 36 38 42 45 44 42 42 43 41 38 37 36
5 5 5 7 7 8 8 6 6 6 6 7 7 8 8 8 8 8 9 9 10 10 10 11 12 13 13 13 13 13 13 13 13 13 14 14 14 14 14 14 16 17 18 20 22 23 26 27 27 25 24 23 24 24 25 26 28 31 33 34 36 39 42 44 49 52 56 67 73 65 52 43 39 39 38 38 38 43 48 49 46 43 41 39 36 36 36 37
6 5 6 7 8 7 6 6 6 7 7 8 8 8 9 9 9 9 9 10 10 11 11 12 13 13 13 13 14 14 14 14 13 14 14 14 14 14 15 16 17 18 19 20 21 23 27 29 29 26 24 24 25 25 26 27 30 33 34 36 38 41 42 45 49 47 47 60 75 81 68 46 38 39 38 38 42 47 50 46 41 40 38 37 36 35 36 37
7 7 8 8 7 7 6 7 7 8 8 8 9 9 9 9 9 9 9 10 11 11 11 12 12 13 13 13 14 15 15 15 14 15 15 14 14 15 17 18 18 19 20 21 22 24 27 30 29 27 24 23 24 25 25 26 29 32 34 36 38 41 43 50 58 51 45 51 60 71 67 46 38 40 38 41 47 50 48 41 37 38 38 38 37 36 36 34
8 8 8 7 7 8 9 8 8 9 9 9 9 9 9 9 9 10 10 11 11 11 11 12 12 13 13 14 15 15 16 17 16 16 16 15 15 17 18 18 19 20 21 22 23 25 27 30 30 27 25 25 25 25 25 27 30 31 34 35 38 41 42 50 58 52 47 49 48 57 68 53 39 39 40 45 51 50 45 38 37 39 39 39 38 36 36 33
7 8 8 8 8 9 9 9 9 9 9 9 9 9 9 9 9 10 11 11 11 11 12 12 13 14 14 15 16 16 17 18 18 17 16 16 16 17 18 19 19 20 21 23 24 26 28 30 31 28 24 23 23 23 26 29 31 32 35 37 40 44 44 47 53 50 51 54 49 59 72 56 38 41 46 50 54 52 44 38 37 39 41 42 40 35 33 29
7 8 9 9 10 9 9 10 9 9 9 9 9 9 10 10 10 11 11 11 12 12 13 13 14 15 15 16 17 17 17 18 19 18 17 17 17 18 19 19 20 21 23 24 25 28 29 30 31 33 33 33 31 31 32 32 33 34 36 39 42 45 48 50 52 53 56 56 51 60 67 51 40 47 50 54 60 54 43 37 36 39 40 38 34 29 26 22
9 9 10 10 10 9 9 9 8 9 8 8 9 9 9 10 10 11 11 12 12 13 14 14 15 15 16 17 17 17 18 18 19 18 18 19 19 19 20 20 21 22 23 25 26 28 29 29 31 35 41 44 41 39 37 36 37 38 38 42 44 46 49 52 54 58 60 56 54 58 57 49 47 51 54 62 66 54 39 34 34 35 34 29 23 21 20 20
10 9 9 9 9 9 8 8 8 8 8 8 8 8 10 10 11 12 12 13 13 14 14 14 15 16 16 17 18 18 18 18 19 19 19 20 20 20 21 21 22 23 23 24 26 28 31 30 30 32 35 35 34 34 36 38 40 40 41 43 45 47 49 52 58 62 58 58 60 57 54 55 55 55 62 68 65 50 36 30 31 31 29 23 17 17 22 27
10 9 9 9 8 8 8 8 8 7 7 8 8 9 11 12 13 13 14 14 14 15 15 15 16 17 17 18 18 18 19 19 20 20 20 21 21 21 22 22 23 23 24 25 26 30 32 31 30 32 30 28 31 34 36 39 39 39 41 44 47 50 51 52 57 58 56 64 66 58 57 62 60 61 70 69 56 41 31 28 28 27 23 18 15 19 29 40
10 9 8 8 7 7 7 7 7 7 7 8 9 11 13 13 14 15 15 16 16 16 16 16 17 17 18 19 19 19 20 20 20 20 21 22 22 22 23 22 23 24 25 27 28 30 33 33 32 32 30 28 32 35 36 37 38 40 44 48 51 53 54 56 57 57 62 68 65 58 62 66 65 67 68 59 45 34 27 26 24 21 18 16 17 25 36 51
8 7 7 7 6 6 6 6 7 8 9 10 12 13 14 15 16 16 16 16 16 16 17 17 17 17 17 18 19 21 21 21 22 22 22 22 22 23 23 23 24 25 26 28 29 31 35 35 33 34 33 29 31 35 36 38 40 42 46 52 56 58 59 61 59 58 63 64 60 61 64 63 65 68 61 48 36 30 26 22 20 19 15 13 21 42 62 67
7 7 6 6 6 6 6 7 8 9 11 13 14 15 16 16 16 17 17 16 16 17 16 17 17 17 18 20 21 22 22 23 23 23 22 23 23 23 24 25 25 26 27 28 28 30 35 36 35 38 37 31 31 35 37 40 43 44 47 54 59 61 62 62 59 57 59 60 61 64 65 62 62 63 56 42 32 26 22 20 19 14 10 21 47 74 84 67
6 5 5 5 6 7 7 9 10 12 14 15 16 16 16 17 17 17 17 16 17 17 16 18 19 19 21 21 21 22 23 23 24 24 24 24 24 25 26 26 27 27 27 28 29 31 35 37 37 41 42 36 34 37 39 41 42 45 52 59 61 62 64 62 59 57 57 60 62 64 67 68 65 59 51 43 35 26 20 22 18 9 23 62 85 81 64 44
4 5 5 6 7 9 10 12 14 15 16 16 17 17 17 17 17 17 17 17 17 18 18 20 20 21 22 22 22 23 24 24 24 25 26 26 27 27 28 27 28 28 29 31 33 33 36 38 39 44 48 41 37 41 42 40 44 50 56 61 63 63 62 60 59 56 55 59 64 68 71 72 66 54 43 38 33 22 18 22 18 21 55 87 74 49 41 43
Wind_Speed
12 13 13 12 10 9 10 13 15 15 14 13 11 9 9 8 7 6 6 6 6 5 5 5 5 4 4 4 4 4 4 3 5 7 7 7 7 7 7 7 7 7 7 6 6 6 6 6 5 5 5 6 6 7 8 8 8 8 9 9 9 10 11 12 12 14 15 16 16 17 17 18 19 19 20 20 20 19 19 19 18 18 17 17 18 19 20 20
11 12 12 11 9 8 8 10 12 13 14 13 11 10 9 8 7 6 4 4 3 4 4 3 4 4 5 4 3 3 3 2 4 7 8 7 7 6 6 6 6 6 5 5 6 5 5 5 5 4 4 5 6 7 7 8 8 8 9 10 10 11 12 12 13 15 16 16 17 18 18 19 20 20 20 20 20 21 21 19 19 18 17 18 18 19 20 20
10 11 11 10 9 8 7 8 10 12 12 12 11 10 8 7 8 6 4 3 2 3 3 2 3 4 5 5 4 3 4 4 4 7 8 7 6 6 5 5 5 4 4 4 5 5 5 5 5 4 4 4 5 6 7 8 8 9 10 11 11 12 12 13 14 15 16 16 17 19 19 20 21 21 21 21 21 22 21 20 20 19 18 18 18 19 21 21
8 9 10 10 9 8 7 7 9 10 11 10 10 9 8 7 7 5 4 4 3 2 1 2 4 5 6 5 5 4 4 5 5 6 7 6 5 5 4 4 4 3 4 4 4 5 5 5 5 5 4 4 5 6 7 7 8 9 10 11 12 12 13 14 14 15 16 17 18 20 20 20 21 22 22 23 23 22 21 21 21 20 19 19 19 20 21 21
6 7 9 9 9 8 7 7 8 9 10 9 8 7 7 6 6 5 4 4 3 2 1 3 4 5 6 5 5 5 5 6 5 5 6 5 4 4 3 3 3 3 3 3 4 4 5 5 6 5 4 4 5 6 6 7 8 10 11 11 12 13 14 14 15 16 16 18 19 20 21 21 22 23 23 25 24 21 21 23 22 21 20 19 19 20 21 22
5 6 8 8 8 8 7 7 7 7 7 7 6 7 6 4 4 5 5 4 3 3 3 3 4 5 6 6 6 5 4 5 5 4 5 5 4 3 3 3 3 3 2 3 4 4 5 5 6 5 5 5 5 6 6 7 8 10 11 12 12 13 13 14 15 16 16 18 18 20 21 21 22 23 24 26 24 22 25 25 23 22 21 20 20 20 22 22
4 5 7 7 7 6 5 5 5 5 5 5 5 5 3 2 5 6 7 7 4 4 5 5 5 4 5 5 5 4 3 5 5 4 4 4 3 3 3 3 2 2 2 3 3 4 5 5 6 5 5 5 6 6 7 8 8 10 11 12 12 12 13 14 15 15 16 17 18 19 20 21 22 23 24 24 21 24 27 25 23 23 21 21 21 21 22 23
4 4 6 6 6 4 4 4 5 4 3 4 3 3 1 3 7 6 7 7 5 5 7 7 5 4 4 4 4 4 6 6 5 3 3 3 2 2 2 2 2 2 2 2 3 5 5 6 6 6 6 6 6 7 7 8 8 9 11 12 12 12 13 14 15 15 17 18 19 20 20 22 22 23 23 20 19 25 28 25 23 22 21 22 22 22 23 24
5 3 5 5 4 3 3 3 3 2 1 2 2 1 2 6 7 5 6 5 5 5 7 7 6 5 4 5 6 6 6 5 4 3 2 1 2 2 2 2 2 2 2 2 3 5 6 6 6 7 7 7 7 7 8 9 8 9 11 12 12 13 14 14 15 16 18 19 20 21 22 23 24 25 22 16 18 24 25 24 22 22 22 23 23 23 23 25
6 4 4 4 3 3 3 3 2 2 1 1 1 1 4 7 5 4 5 4 5 7 6 6 6 5 5 5 6 6 4 4 4 2 1 2 2 2 2 2 2 3 3 3 4 5 6 6 6 7 8 7 7 8 8 8 9 10 11 12 13 14 14 15 16 18 19 20 22 23 24 25 25 24 19 15 19 21 22 22 21 21 22 24 24 23 24 25
7 5 5 4 3 4 3 3 2 1 1 2 2 4 6 5 4 5 4 4 7 8 7 6 6 5 5 5 5 5 3 3 3 2 2 1 1 1 1 2 2 3 4 4 5 5 6 6 7 8 7 7 8 8 8 8 10 11 11 12 13 14 15 17 18 19 21 22 24 26 26 26 24 22 19 18 19 21 22 22 21 22 22 24 24 23 24 25
9 7 5 5 5 4 2 2 1 1 2 3 4 6 6 4 4 4 3 5 8 9 8 7 6 6 5 5 4 3 3 2 2 2 2 1 0 0 1 2 3 4 4 4 5 6 5 6 7 8 7 8 8 8 8 9 11 12 12 14 15 15 15 17 18 20 23 23 25 27 28 26 23 22 21 19 19 21 23 22 21 22 22 24 24 23 24 25
9 8 6 6 7 6 4 1 0 2 3 5 6 6 5 5 4 3 4 6 8 9 8 7 6 6 5 4 4 3 2 2 2 2 1 1 0 1 2 3 4 4 5 5 6 6 6 6 7 8 8 8 9 8 9 11 12 12 14 15 15 16 15 17 19 20 22 23 25 26 28 27 23 22 21 18 20 22 23 22 20 21 22 23 23 23 23 25
9 9 8 6 6 7 5 2 1 3 3 5 7 7 6 6 5 4 5 7 9 9 9 8 7 5 5 4 3 3 2 2 2 2 1 1 1 2 2 3 4 5 6 6 6 7 7 7 8 8 7 8 8 9 11 13 13 13 15 15 16 17 17 18 18 19 20 22 25 26 29 29 24 23 22 19 21 21 22 22 20 20 21 22 22 22 23 25
9 9 9 8 6 6 5 2 1 2 4 6 8 7 7 7 6 5 6 8 9 10 9 9 7 6 5 4 3 3 2 2 2 1 1 1 1 2 3 4 5 6 7 7 7 8 7 8 9 8 8 9 9 10 12 14 14 14 14 15 17 18 18 19 18 19 20 22 26 24 28 32 27 23 21 21 21 21 22 22 20 20 20 21 21 21 22 24
9 10 10 10 7 6 5 3 1 4 6 8 9 8 7 7 7 6 7 9 9 9 8 8 7 6 5 4 3 2 2 2 1 1 0 1 2 2 3 4 5 7 7 8 8 8 8 9 9 8 8 9 9 11 13 14 14 14 15 16 18 19 19 19 18 20 22 24 26 24 29 34 29 23 21 21 21 22 23 23 20 18 18 19 19 20 21 21
8 10 10 11 10 8 6 4 5 8 8 9 10 8 7 7 7 7 8 9 9 9 7 6 6 5 4 4 2 2 2 1 1 0 0 1 2 3 3 3 5 7 8 8 8 9 9 9 9 9 8 10 10 12 13 14 14 14 16 17 18 19 21 20 19 22 24 25 26 27 33 35 29 23 20 19 21 24 24 21 17 15 15 16 17 17 18 18
6 9 10 10 11 10 7 6 8 10 10 11 11 9 7 8 8 8 7 8 9 9 7 6 7 5 3 3 3 2 2 1 1 0 1 1 2 3 4 4 5 7 8 8 8 9 9 9 10 9 9 11 11 12 13 14 14 15 16 18 19 20 22 20 21 25 26 26 28 31 34 35 29 22 18 20 24 26 22 17 13 12 13 14 15 15 15 17
5 7 9 10 9 8 8 8 9 11 12 13 11 8 7 8 8 7 7 7 8 9 8 7 7 5 3 4 3 3 2 2 2 1 1 2 3 3 4 5 5 7 9 9 9 10 10 11 10 10 11 12 12 12 13 14 15 15 17 19 19 21 22 20 23 26 26 28 31 32 34 35 29 22 20 23 24 22 17 11 10 11 12 12 13 14 16 18
5 4 6 8 8 8 8 9 9 11 14 13 10 9 8 7 8 7 7 7 8 10 10 8 8 5 4 4 4 3 3 3 2 1 2 2 3 4 4 5 6 7 8 9 10 10 11 11 11 11 12 12 13 13 14 16 15 16 19 20 21 23 22 21 24 26 27 33 34 33 35 33 28 25 22 20 19 17 12 9 9 10 11 12 13 15 18 20
5 4 4 6 8 8 9 9 8 11 12 11 9 9 8 8 8 7 7 7 8 10 10 9 8 6 5 5 4 4 4 4 4 3 2 3 3 4 5 5 6 7 8 9 10 10 11 10 10 11 12 13 13 14 15 16 16 18 20 22 23 23 24 23 24 26 30 35 36 36 36 31 27 25 17 15 18 15 10 9 10 11 12 14 15 17 19 21
6 4 4 5 7 8 8 8 8 8 9 9 10 10 9 8 7 7 7 7 8 9 10 9 9 7 6 6 6 5 6 5 5 4 4 4 4 5 6 6 7 7 8 9 10 11 12 10 10 12 12 13 14 14 15 17 18 19 21 24 24 23 25 24 23 27 30 35 38 37 36 31 26 19 12 17 20 14 10 10 11 13 14 15 17 18 20 22
7 5 4 4 5 6 7 7 6 5 7 10 11 9 9 7 6 7 7 7 8 9 10 9 9 8 7 7 7 7 7 7 7 6 5 5 5 6 7 7 8 8 9 10 10 12 12 10 11 13 13 14 15 14 15 17 18 20 22 24 23 24 25 25 27 28 28 33 36 35 37 32 21 15 16 19 17 14 13 12 12 15 16 17 18 19 21 23
7 6 4 3 3 4 6 6 5 5 6 8 8 7 6 5 5 6 6 7 8 9 9 9 8 8 8 8 8 9 9 9 8 7 7 7 7 7 7 8 9 10 10 11 11 12 12 11 13 14 14 15 15 15 16 17 18 20 22 22 23 25 25 27 31 31 29 29 29 33 36 24 15 21 24 18 15 17 16 12 13 16 17 18 19 20 22 24
7 6 5 4 1 2 4 5 5 6 6 6 6 6 4 4 5 6 6 7 7 8 8 8 8 9 9 10 10 11 11 11 11 10 9 9 8 8 9 9 10 10 12 12 12 13 12 12 14 15 15 16 16 16 16 18 19 20 22 22 24 26 26 28 30 32 31 26 25 29 22 12 19 29 23 18 19 20 16 13 13 16 19 20 20 22 24 26
8 5 6 7 2 2 4 4 5 6 6 5 5 4 3 3 4 5 6 7 7 8 8 8 9 8 9 11 12 13 13 12 12 11 11 10 10 10 10 11 11 12 13 12 13 13 12 14 15 15 16 17 17 16 16 18 20 21 22 23 25 26 27 29 30 30 27 23 25 24 10 11 28 33 25 25 24 16 14 14 14 16 21 23 24 26 28 29
9 4 4 7 5 4 4 3 4 4 4 4 3 2 2 2 2 4 6 6 6 7 9 9 9 9 9 9 10 12 11 10 10 11 11 11 11 11 12 12 13 13 14 14 14 14 14 16 16 16 17 17 17 16 16 18 20 21 22 24 26 26 28 30 29 28 26 23 22 18 11 11 23 33 32 28 18 9 12 16 15 18 24 27 29 32 34 33
9 5 4 6 5 4 3 2 2 3 3 3 2 2 1 2 3 5 5 3 3 5 7 8 10 12 12 12 12 13 13 13 12 11 11 11 12 13 14 14 14 15 15 16 16 16 16 17 16 18 18 17 17 15 16 19 19 21 23 25 26 28 30 29 26 26 24 19 13 11 10 7 19 35 32 21 14 10 15 19 16 19 26 29 32 35 37 35
8 6 4 4 4 3 2 2 2 2 2 2 2 2 2 4 5 6 4 1 3 5 5 6 8 10 12 14 15 15 16 16 15 14 15 15 15 15 15 16 17 18 17 17 18 17 17 17 17 19 18 17 16 15 17 19 18 21 23 25 27 30 30 25 23 23 17 11 6 5 6 3 18 36 27 16 17 16 19 21 16 18 25 27 30 34 36 36
8 6 5 4 3 2 2 1 1 2 3 4 4 5 5 5 6 5 2 2 4 6 6 6 7 9 11 14 15 16 17 17 17 17 17 17 17 17 17 18 19 20 19 18 19 18 18 17 19 20 18 17 16 16 18 18 19 21 22 25 29 29 26 21 20 16 8 5 3 4 5 3 10 27 26 19 21 21 20 18 15 18 22 24 27 31 33 34
8 6 5 4 2 2 2 2 2 4 4 5 6 6 7 7 7 3 2 4 6 5 4 6 9 12 13 14 15 16 16 16 17 17 18 19 19 19 19 19 20 20 20 19 18 17 17 18 20 20 17 16 16 16 17 19 20 19 20 25 27 23 19 14 11 6 2 3 4 4 7 6 9 19 26 25 22 21 18 15 16 18 19 21 25 28 29 31
9 6 3 2 1 1 2 3 4 5 6 7 7 7 7 7 6 5 4 6 6 4 6 11 14 15 15 16 16 16 17 17 17 18 19 20 20 20 21 20 20 20 18 18 19 20 21 20 18 17 15 15 14 15 19 20 19 17 20 23 18 13 11 6 3 2 3 4 4 4 5 11 20 22 27 27 20 16 15 15 16 19 22 23 26 29 28 28
9 6 3 2 0 2 3 4 5 7 8 8 8 8 7 5 4 4 5 6 6 8 12 15 17 18 19 20 18 17 17 17 18 18 19 20 20 20 20 19 20 18 18 21 22 20 17 15 14 14 13 12 14 18 20 19 18 19 20 17 10 4 4 5 4 3 5 5 6 8 7 13 22 23 31 27 16 16 19 18 18 23 27 27 29 31 28 28
10 8 5 3 2 3 4 5 7 8 9 9 9 8 7 5 5 7 8 9 10 12 15 17 20 21 20 20 19 17 16 16 17 17 17 18 18 19 19 19 19 19 19 20 18 14 11 11 13 12 11 12 17 21 20 20 21 19 16 14 12 6 3 5 4 2 8 10 10 11 7 10 19 28 30 17 14 23 26 22 22 27 31 31 31 30 27 31
10 10 9 6 4 5 6 7 9 10 10 10 10 9 8 6 6 9 10 11 12 15 18 20 22 22 20 18 15 13 12 13 15 16 16 17 18 18 19 18 17 17 17 15 13 11 11 11 11 10 12 17 22 21 19 19 17 14 14 15 15 11 7 9 10 11 12 12 9 10 11 17 30 34 21 7 17 30 29 27 29 31 33 33 31 29 29 36
8 10 10 9 8 8 9 10 11 11 10 10 11 11 10 8 8 10 11 12 15 18 19 21 20 19 17 14 11 11 12 14 15 16 16 16 17 17 15 14 14 14 14 15 14 11 10 11 12 14 18 21 20 18 18 18 15 14 17 19 17 15 11 11 12 12 9 7 7 9 15 28 33 27 14 12 27 33 29 32 33 32 33 32 32 33 35 40
8 9 10 10 10 9 11 12 12 11 10 10 11 11 11 11 11 12 13 14 16 17 19 20 19 16 14 12 12 14 15 15 16 16 17 17 16 14 12 12 14 15 16 16 15 14 15 18 20 19 19 19 18 18 20 20 19 18 19 19 18 14 9 7 5 6 3 3 6 8 16 28 25 17 19 25 33 35 35 36 34 33 34 34 36 38 40 43
8 8 9 9 9 10 12 13 12 11 10 10 11 11 11 11 11 12 13 15 16 17 19 19 16 14 13 14 16 17 17 17 17 17 18 17 13 12 14 16 17 17 16 15 15 16 19 20 18 16 15 17 19 21 22 21 19 19 19 19 17 11 8 6 3 3 3 3 6 5 12 25 23 17 22 30 36 40 41 38 35 34 35 38 41 43 45 47
7 8 8 8 9 12 13 12 11 10 10 10 10 9 9 10 11 12 14 15 17 18 18 17 15 14 15 17 19 19 18 18 18 18 17 14 12 15 18 18 16 14 15 15 16 18 18 15 13 15 18 20 22 21 22 21 20 20 20 20 18 13 12 10 6 4 3 4 6 4 6 15 18 20 27 33 38 42 42 39 36 36 38 42 46 48 50 52
7 7 7 9 11 12 12 11 10 9 10 9 9 8 9 11 12 13 14 16 17 17 18 18 17 17 19 20 19 19 19 19 18 18 16 15 17 18 16 14 14 15 17 17 17 19 19 15 15 20 23 22 22 21 22 24 23 22 21 20 19 15 14 14 12 11 9 5 3 2 5 15 24 30 33 33 37 40 39 39 40 40 41 45 49 52 54 56
6 7 8 10 11 11 10 9 9 9 9 9 9 9 11 12 13 14 14 15 17 18 18 19 18 17 18 18 17 18 18 18 17 17 16 17 17 14 13 14 17 18 18 19 19 18 17 17 20 25 26 24 23 23 24 26 23 21 20 18 18 17 15 12 8 10 12 11 9 5 8 26 37 34 31 32 36 36 36 40 44 44 45 48 52 55 56 58
7 9 10 10 10 9 8 8 8 8 9 9 10 11 12 13 14 14 15 16 17 17 17 17 16 15 15 16 16 16 17 18 17 15 14 15 15 15 16 17 18 19 19 19 18 17 16 17 22 26 26 24 23 23 21 19 16 16 16 17 17 18 16 11 7 10 11 13 18 12 8 28 38 29 28 33 34 33 37 44 47 48 49 53 56 58 59 60
8 9 9 8 8 8 8 8 8 8 9 9 10 11 12 13 13 14 14 15 15 16 15 15 15 15 14 15 15 15 16 17 15 12 14 15 16 16 17 18 19 19 19 18 17 16 15 15 20 26 28 25 22 18 13 11 14 17 19 21 20 19 19 17 17 22 18 16 21 12 6 22 32 29 31 33 31 34 41 47 50 52 54 57 60 61 62 62
8 8 7 7 7 7 7 8 8 8 9 9 10 11 11 12 13 13 14 14 15 15 14 14 14 14 13 14 14 14 15 14 13 14 15 15 16 17 17 19 19 18 19 19 18 18 15 14 19 22 21 19 15 10 8 12 20 24 25 25 24 23 23 22 22 22 18 17 18 10 11 26 33 34 35 31 32 41 47 51 54 56 58 61 63 64 64 63
7 7 6 6 7 8 8 8 8 8 9 9 10 10 11 12 12 13 14 14 14 13 13 13 12 12 12 13 13 14 14 14 14 15 16 16 17 17 17 17 18 19 20 20 20 20 17 17 19 15 9 9 11 12 15 21 26 28 28 27 27 26 23 22 21 18 14 16 17 16 24 40 41 38 36 32 36 46 53 56 58 59 61 63 63 64 64 63
7 7 6 7 7 7 7 7 8 8 9 10 11 11 11 12 13 13 13 13 12 12 12 12 12 12 12 13 14 14 14 14 15 16 17 17 17 17 18 18 19 20 20 20 20 19 18 19 19 16 15 17 21 23 25 28 30 29 27 24 22 20 18 18 19 18 18 21 25 25 31 43 46 41 35 35 42 52 58 61 62 64 65 65 64 64 62 60
7 7 7 7 7 7 7 8 8 9 10 10 11 11 12 12 13 13 13 12 12 12 12 11 11 12 12 13 15 15 14 15 16 17 17 17 18 19 19 20 21 20 19 19 18 17 18 20 20 20 21 24 26 26 26 27 27 25 24 20 15 12 12 13 14 16 18 19 25 30 33 38 43 39 35 40 50 57 62 64 66 67 68 67 67 65 62 59
7 7 8 8 8 7 8 9 9 9 10 11 12 12 12 12 12 13 12 12 12 12 12 11 11 12 13 14 15 15 16 16 17 17 17 18 20 20 20 21 20 19 19 18 18 19 20 21 22 22 22 23 24 24 22 21 20 22 21 14 9 8 10 12 14 18 19 19 26 36 37 36 37 35 37 47 56 60 63 65 66 68 68 68 68 65 62 60
7 8 8 8 8 8 9 9 9 9 10 11 12 12 12 12 12 12 12 12 11 11 11 11 11 12 13 14 15 16 17 17 17 18 19 20 20 20 21 21 19 19 20 20 22 21 19 20 23 23 24 23 21 21 20 19 22 24 15 7 7 10 13 15 18 21 24 27 33 39 38 36 34 35 43 53 58 61 63 65 68 69 70 70 67 61 58 60
8 8 8 8 8 8 8 9 9 10 11 11 12 12 12 11 11 11 11 12 11 10 11 11 12 13 13 14 15 15 16 17 18 19 19 20 20 20 21 20 19 20 21 21 22 20 18 20 21 23 25 23 19 19 20 22 26 19 5 2 9 14 16 19 22 26 31 35 36 35 36 37 36 38 46 55 61 64 64 66 69 71 71 67 60 54 56 61
8 8 8 7 7 7 8 9 9 10 11 11 11 11 11 11 11 11 11 11 10 10 11 11 12 12 13 13 14 15 16 16 17 18 19 20 20 20 19 19 20 20 19 19 19 18 18 20 20 21 24 22 21 20 20 24 22 9 0 6 13 16 20 23 24 27 32 38 38 34 33 36 39 42 50 59 65 68 66 65 68 70 64 54 50 53 59 61
7 7 7 6 7 7 8 9 10 10 10 10 10 11 11 11 10 11 11 10 10 11 11 11 11 12 12 13 14 14 15 16 17 18 18 19 19 18 18 18 17 17 16 16 16 17 17 18 19 19 19 21 22 20 22 21 12 1 2 10 13 18 23 27 27 27 31 36 35 32 32 35 38 47 58 66 70 71 69 66 65 62 52 45 50 57 58 57
Wind_Direction
116 117 115 114 111 105 102 98 91 86 83 81 83 87 93 96 98 108 119 123 121 115 109 110 111 111 106 100 98 97 98 107 120 121 125 127 120 116 113 106 93 81 73 63 54 45 37 31 25 15 4 353 340 334 327 321 317 307 303 300 296 295 293 295 295 294 295 294 293 292 291 289 285 285 285 286 288 290 291 291 291 293 300 305 310 315 318 317
117 119 115 113 112 110 105 98 90 82 77 75 76 80 84 89 91 92 97 98 100 98 92 97 114 121 115 108 108 113 118 133 146 135 130 124 116 113 107 93 82 71 61 54 42 30 24 18 8 357 349 338 330 325 317 312 308 303 303 298 293 292 291 292 293 293 294 293 292 291 290 287 284 284 284 285 287 289 292 291 290 293 299 304 310 316 319 318
119 119 115 111 110 109 104 95 86 75 66 61 61 70 81 89 89 87 80 55 34 57 76 98 134 137 129 130 133 140 147 153 155 135 121 116 112 109 103 89 74 57 45 36 22 10 8 5 353 338 325 323 322 317 311 308 307 305 303 298 293 292 291 291 292 293 291 290 289 289 289 286 285 285 285 286 286 290 293 290 288 292 296 302 310 316 320 320
120 122 116 109 107 105 100 91 80 68 59 52 50 57 67 74 75 78 73 44 18 29 87 162 168 157 147 145 144 152 160 155 145 128 115 113 115 109 104 93 76 51 29 13 1 355 357 353 341 326 317 319 316 313 312 306 303 301 299 297 296 295 293 294 295 295 293 290 288 289 289 288 288 287 288 287 287 293 294 288 288 289 293 300 308 315 320 322
125 126 122 114 109 105 99 88 73 63 57 51 47 44 42 51 58 56 51 35 20 358 269 199 186 168 155 152 151 156 164 161 146 125 117 119 122 116 107 91 75 51 21 2 351 345 347 343 331 322 313 310 306 307 311 307 300 297 299 299 297 296 295 296 298 297 296 293 291 291 290 291 291 290 289 287 290 296 291 287 288 286 289 297 304 313 321 323
136 132 133 128 118 108 96 80 67 67 61 53 48 31 20 21 25 28 11 351 346 303 258 215 190 164 146 143 142 148 169 178 159 131 127 132 132 125 109 90 73 50 18 358 345 333 336 335 325 315 303 298 299 308 314 310 301 298 303 302 298 299 297 298 300 300 298 296 296 295 293 293 292 291 288 287 294 294 287 288 289 283 286 293 301 312 321 324
150 136 141 143 135 115 88 72 74 82 75 72 49 18 27 344 339 350 334 321 317 272 243 213 186 164 148 141 140 150 164 165 158 147 144 143 139 128 106 92 72 49 18 352 338 324 327 328 324 318 308 307 308 314 317 314 307 302 306 306 302 302 301 302 302 302 302 301 301 300 298 295 293 292 288 290 295 288 286 291 289 284 285 294 301 309 319 323
177 142 137 147 148 126 93 93 99 96 77 78 37 5 123 307 323 323 307 306 312 274 236 220 212 205 179 154 148 153 144 144 156 169 162 146 133 118 89 72 51 33 360 344 329 318 321 326 329 328 322 319 317 319 319 317 312 307 311 310 305 304 305 306 305 306 308 307 305 304 304 301 299 294 292 296 290 281 287 292 289 285 287 296 301 305 315 322
210 170 142 151 158 132 103 104 112 117 62 34 337 335 229 293 312 293 280 287 298 273 233 222 218 200 166 145 147 152 146 150 171 187 175 125 106 90 61 39 18 358 339 340 331 321 322 329 331 329 326 318 316 322 323 321 316 313 312 311 308 307 309 309 309 311 311 310 308 308 308 306 303 300 300 298 284 283 291 294 289 288 291 296 299 301 311 322
227 215 181 169 155 129 99 82 89 131 108 301 280 273 275 291 293 255 256 264 267 256 231 213 199 179 158 154 155 155 154 161 180 191 144 98 93 71 61 28 1 346 335 335 332 322 320 329 328 323 322 316 316 323 325 322 318 316 313 313 311 310 314 313 312 313 313 314 313 314 313 309 306 306 308 297 290 294 297 295 292 291 293 295 297 298 307 320
229 229 220 209 177 144 110 80 83 104 355 316 323 318 296 284 256 239 238 239 246 243 229 209 192 178 167 167 163 160 162 169 185 174 118 107 76 52 44 2 355 345 335 330 326 316 314 327 325 320 320 318 322 324 323 322 319 317 315 315 313 311 315 315 314 316 317 319 318 318 314 309 310 312 309 300 297 300 299 298 296 294 293 293 295 297 304 318
221 226 228 231 216 186 150 101 99 343 331 322 325 320 297 266 244 235 219 229 239 234 219 204 193 180 169 169 170 165 162 167 171 148 127 128 149 360 357 353 355 347 338 327 317 310 314 328 325 320 319 320 325 324 322 324 322 319 317 316 314 313 315 314 316 318 319 320 318 319 314 313 319 315 308 303 298 300 301 301 298 294 293 292 294 295 302 314
212 218 223 231 227 215 211 195 299 282 297 308 320 323 297 259 247 232 218 228 233 226 212 202 195 179 167 173 180 178 165 163 157 147 140 132 267 303 341 356 353 344 335 325 315 313 322 331 324 316 313 317 322 321 322 326 326 322 318 316 313 313 315 316 318 317 318 318 318 317 312 317 327 319 312 306 298 298 301 301 297 294 293 292 293 294 301 311
205 208 215 222 223 218 223 238 260 259 288 310 319 320 294 262 251 239 225 228 230 226 218 214 206 188 180 186 193 193 177 158 154 158 133 50 331 319 345 356 352 338 329 327 320 317 326 329 322 313 310 317 323 323 327 329 327 321 318 316 314 315 316 318 318 316 318 316 316 314 307 315 327 322 316 305 295 295 298 299 296 294 293 291 290 293 302 310
203 205 208 212 212 205 207 210 236 267 301 313 317 313 288 267 257 239 225 230 234 231 226 220 209 197 193 195 198 198 183 166 172 174 103 35 337 328 347 356 352 338 332 333 327 322 326 327 322 316 316 322 326 328 330 328 324 319 318 317 315 314 316 320 320 318 319 316 316 313 306 314 325 323 314 301 293 293 295 295 295 294 290 289 291 297 305 312
200 204 205 208 207 188 176 179 257 300 308 310 313 306 280 266 254 234 226 232 234 227 220 211 201 199 200 198 205 201 186 176 183 184 115 29 351 346 348 352 352 348 342 336 332 328 325 325 325 321 321 327 329 330 329 323 320 318 317 317 315 313 316 323 322 318 321 319 319 316 310 315 324 322 312 301 295 294 294 295 297 296 288 287 294 301 308 313
195 200 202 204 206 198 184 198 261 289 297 301 304 297 274 259 243 229 226 230 228 216 207 206 205 209 210 207 214 208 191 185 185 218 289 339 353 3 354 345 353 356 348 338 336 334 327 325 326 323 323 328 331 331 326 320 319 319 317 317 318 315 317 322 321 320 322 322 322 320 315 316 324 325 318 309 298 294 296 300 300 294 287 291 298 305 311 316
195 199 203 198 201 206 205 223 259 273 277 285 289 284 270 254 235 226 227 228 220 209 209 219 217 216 219 212 210 210 207 204 204 268 331 332 337 353 356 348 351 355 351 344 339 336 330 328 330 325 323 327 330 329 325 321 319 320 320 320 322 319 320 323 321 322 323 322 323 323 319 318 325 329 321 309 298 296 300 300 293 287 291 297 305 312 316 322
208 204 211 208 205 206 210 226 248 260 265 274 275 267 261 253 237 229 228 225 216 214 223 227 220 223 233 217 209 220 224 229 234 265 314 339 343 343 349 349 347 348 351 348 341 338 334 333 333 328 324 324 323 323 325 325 322 322 323 323 323 322 325 325 320 321 322 320 323 325 322 321 326 328 316 304 299 301 304 295 288 295 304 311 317 323 324 329
210 207 217 217 211 206 210 221 236 251 258 265 261 254 252 247 242 237 228 223 218 220 229 232 226 230 239 228 226 236 241 245 243 264 290 321 341 338 340 346 348 345 346 346 340 339 337 334 333 328 322 318 313 315 323 327 326 325 326 327 326 324 326 326 320 321 322 320 324 327 323 322 327 325 316 309 308 307 303 298 305 313 322 328 330 332 332 334
206 212 225 221 212 206 210 218 231 247 258 260 249 247 246 241 243 242 233 227 224 224 230 235 230 232 241 237 241 251 255 254 252 265 286 300 324 337 340 339 344 342 339 341 340 339 336 331 331 326 319 313 308 309 319 326 329 329 328 328 329 326 324 325 321 321 323 321 324 325 322 324 328 322 317 323 318 306 299 307 319 330 336 337 336 336 335 337
211 221 241 231 218 212 211 217 227 246 259 251 241 241 242 240 241 244 244 237 230 227 232 238 235 235 241 244 254 260 261 264 263 267 281 293 305 328 336 330 335 337 333 337 337 337 334 328 327 325 319 315 309 307 315 324 329 330 330 329 330 328 323 323 322 322 323 322 322 324 321 325 330 319 316 330 321 299 295 312 328 339 342 338 337 337 336 339
207 217 246 244 228 222 217 219 234 261 263 247 240 238 237 240 247 253 254 246 239 236 239 243 237 236 245 255 261 264 268 271 271 273 280 287 297 316 324 324 328 330 332 333 331 333 331 325 325 325 322 318 313 307 311 321 327 329 330 329 328 328 324 320 320 321 322 321 322 322 320 326 336 324 319 329 323 301 294 306 328 340 343 338 336 336 335 338
200 203 227 234 236 239 234 234 248 272 271 254 243 238 240 250 267 272 265 258 254 248 246 242 236 239 250 257 260 265 272 274 277 280 279 285 295 307 313 317 322 324 328 328 324 326 326 321 323 324 321 320 316 308 308 316 323 327 329 328 327 327 324 320 319 320 320 321 322 324 323 328 341 328 323 328 324 310 296 295 321 337 342 340 337 337 335 335
191 190 215 226 272 303 273 249 247 260 264 253 242 241 248 258 275 280 275 275 268 258 252 246 247 250 252 257 261 266 272 275 278 278 278 286 295 303 309 311 314 317 320 321 319 319 320 320 321 321 318 319 316 309 307 313 319 325 327 326 326 326 323 321 320 319 321 323 325 329 329 323 328 329 327 327 325 313 297 296 317 334 342 342 340 338 337 334
182 199 237 235 242 282 263 247 249 256 249 240 236 238 240 255 279 284 286 291 279 264 258 251 250 253 257 262 262 267 275 275 276 277 279 285 291 298 305 306 308 311 312 314 315 313 315 316 317 318 315 316 316 310 307 310 315 320 324 326 326 324 322 321 319 317 318 319 322 328 322 298 322 332 332 329 328 313 301 307 314 332 344 344 343 342 341 339
183 186 220 211 203 220 227 226 235 236 221 218 218 213 234 266 295 301 303 304 282 264 262 257 253 253 261 267 265 273 278 276 280 284 283 285 290 296 300 301 302 305 306 308 307 308 311 311 312 315 313 313 314 310 307 309 310 314 321 325 324 323 321 319 316 312 309 313 317 319 315 294 312 328 331 332 334 318 319 321 314 332 346 346 346 346 345 344
186 173 174 186 184 186 192 180 185 188 188 194 187 184 255 303 316 316 318 328 303 281 272 268 264 261 265 268 270 276 278 278 282 286 286 289 293 296 296 298 298 299 302 300 299 304 307 305 307 311 310 310 310 307 308 308 306 310 318 322 323 322 320 316 312 307 305 313 313 307 324 305 302 322 335 338 335 331 330 325 317 333 346 346 345 345 345 345
175 168 174 177 159 147 145 145 161 198 221 229 223 225 281 311 316 321 319 288 309 310 301 294 286 279 277 276 276 279 281 279 275 279 286 289 292 294 293 295 296 297 299 296 296 301 303 300 303 308 306 306 306 305 308 308 303 307 314 319 322 321 318 315 309 304 303 307 291 278 329 341 307 322 341 348 334 333 328 324 323 334 342 343 343 343 343 343
167 164 169 159 139 132 125 115 77 321 289 279 273 270 286 298 311 328 313 260 311 320 317 320 317 309 302 294 288 286 287 284 277 279 284 287 289 291 291 294 296 296 297 296 296 298 299 299 301 304 303 301 303 304 308 308 304 306 311 317 322 321 318 313 302 301 306 296 224 206 314 350 305 323 342 345 334 337 332 330 337 338 339 341 343 343 342 342
174 172 165 152 125 106 94 52 12 340 318 304 297 291 288 289 296 297 250 301 325 328 331 342 337 328 320 310 299 292 290 288 284 282 284 286 288 289 291 295 297 299 300 299 298 299 300 300 301 301 299 298 301 304 309 310 306 304 309 318 324 323 319 308 289 288 302 277 197 198 307 312 266 308 341 347 343 344 339 339 343 339 339 343 345 343 342 341
185 181 165 162 118 51 34 16 360 341 330 321 314 307 296 288 279 258 270 311 325 327 333 333 329 327 324 317 307 296 289 287 287 287 286 287 287 289 292 294 297 300 299 298 301 301 301 300 299 298 297 298 302 308 313 312 307 304 310 321 328 330 331 317 261 258 242 232 231 244 300 296 277 300 338 348 355 357 343 341 341 338 338 340 343 341 337 335
197 196 189 194 276 353 351 353 346 337 332 324 319 315 301 280 258 264 288 305 304 311 321 321 319 320 319 315 309 299 291 287 287 288 288 289 290 292 295 295 298 297 292 297 303 303 301 300 300 299 297 299 306 313 315 311 307 306 309 321 329 340 351 318 281 290 279 258 262 269 291 295 288 314 338 343 4 8 352 347 341 339 341 338 337 335 330 328
207 209 209 214 263 320 329 335 334 331 328 322 319 314 292 265 268 287 292 293 297 307 313 315 316 316 314 312 308 301 294 291 292 293 293 294 295 298 299 300 300 297 295 299 302 300 295 295 302 300 294 304 310 313 314 309 307 306 305 313 314 296 259 274 273 279 296 299 284 269 273 282 293 321 337 349 13 0 352 350 342 341 341 335 331 329 325 326
215 218 220 230 268 304 318 327 329 326 323 319 315 305 289 281 289 294 295 297 303 309 312 314 316 315 314 314 312 309 301 297 301 303 301 301 302 303 303 304 304 303 301 300 299 296 287 287 298 297 296 306 309 310 312 311 308 305 305 307 304 292 258 255 270 275 286 305 296 255 252 280 300 318 335 2 352 347 347 345 341 337 332 328 326 325 323 325
230 230 233 247 274 300 314 322 323 320 319 316 309 302 298 297 293 294 298 301 306 310 312 314 316 317 317 315 315 317 312 306 307 307 307 307 307 305 305 308 310 309 306 299 296 295 286 283 293 298 301 305 307 309 311 310 304 299 302 302 300 298 282 264 274 281 279 294 286 254 272 293 306 319 326 331 337 340 341 338 335 329 325 325 327 328 327 326
246 242 246 256 274 295 309 316 316 314 315 312 306 306 305 301 296 297 300 302 305 308 311 314 316 314 312 309 310 314 313 311 310 309 310 310 307 304 305 311 312 310 307 300 295 292 288 290 296 301 303 305 307 310 309 308 304 297 297 300 303 303 290 265 275 301 299 272 270 258 280 294 303 312 317 329 339 341 338 334 329 324 324 327 329 331 331 329
260 258 257 261 275 294 305 310 311 312 312 308 309 312 308 304 303 302 301 302 303 305 307 310 310 306 304 304 308 311 310 310 309 308 310 310 304 303 308 311 309 307 306 304 299 295 295 298 301 302 304 306 308 309 309 309 306 300 298 300 301 296 281 269 270 310 327 294 285 266 276 291 297 303 317 333 341 341 338 334 329 327 329 331 331 333 333 332
271 269 266 271 284 297 304 307 309 311 308 307 316 317 307 304 303 300 299 300 301 303 304 304 302 301 301 303 306 307 307 307 308 309 310 308 303 307 310 309 309 310 310 308 303 299 298 296 295 300 304 307 308 309 309 309 307 304 301 301 299 292 281 274 251 242 272 285 295 300 283 290 297 303 315 331 339 339 337 334 333 334 334 334 335 336 336 335
275 274 276 284 292 298 302 303 305 306 305 310 316 311 302 299 298 297 298 299 301 302 302 302 301 298 299 303 304 305 307 308 310 311 308 306 308 312 313 312 313 312 309 308 305 301 297 286 283 296 302 305 308 310 307 304 302 300 300 301 300 295 290 285 270 257 256 255 274 321 292 284 293 304 315 329 336 336 335 335 335 336 335 335 337 337 337 335
273 278 284 290 294 297 298 300 303 304 304 308 307 301 298 297 297 298 299 300 301 301 301 302 302 300 300 304 306 307 309 309 311 312 307 309 314 314 313 313 313 311 308 308 306 302 297 286 284 293 300 306 309 307 303 301 301 302 304 307 305 301 294 289 281 261 248 246 257 268 287 289 296 309 322 332 334 332 334 336 335 335 335 335 336 337 337 336
276 285 289 292 294 295 297 300 302 301 300 302 301 300 300 299 301 303 303 302 302 302 305 306 306 305 303 305 308 310 310 309 311 312 309 311 315 313 311 312 312 310 309 308 306 304 298 291 289 294 302 308 308 306 304 303 307 313 315 316 314 309 297 281 276 280 265 257 267 265 267 286 296 315 331 331 331 330 334 337 336 335 334 335 335 336 336 335
286 289 291 295 294 294 299 300 298 297 299 303 304 305 306 306 308 310 308 309 309 309 311 311 309 308 307 308 310 311 312 311 310 312 313 314 316 314 312 311 310 310 310 309 307 307 304 297 296 300 307 311 309 310 310 309 319 322 318 316 314 311 307 294 283 286 280 267 273 272 250 279 296 323 333 330 329 329 334 338 337 335 334 334 335 335 334 333
290 289 293 298 298 297 299 300 299 301 304 306 308 311 314 314 314 314 313 313 314 313 315 314 312 311 311 311 312 314 316 313 308 311 315 316 317 315 311 310 309 309 310 309 308 308 305 298 299 305 316 322 319 321 317 312 317 317 314 314 312 311 310 302 292 287 278 271 273 262 258 283 304 328 333 332 330 330 336 338 337 337 336 335 335 334 333 332
288 293 298 301 301 299 300 301 302 305 309 311 314 318 319 317 316 315 315 315 315 315 316 316 315 316 315 315 315 317 318 313 309 312 317 319 316 313 311 310 309 309 311 311 310 308 302 296 298 299 303 306 305 309 310 310 312 311 310 312 312 311 308 301 294 281 273 281 271 252 274 295 314 331 333 332 331 332 337 338 337 337 337 336 335 332 331 329
289 299 302 303 305 304 306 310 309 310 314 314 317 321 320 318 317 317 318 318 317 318 320 319 319 320 320 319 319 319 319 317 313 313 317 318 315 314 314 313 312 312 312 311 310 307 300 299 301 295 286 289 298 305 308 308 308 308 311 314 316 314 309 302 288 275 285 292 278 276 293 305 318 330 332 332 333 334 336 337 336 336 335 334 333 330 329 327
294 300 302 305 310 310 310 311 311 313 315 316 319 322 321 318 319 321 321 322 321 322 323 324 324 324 324 322 321 321 321 318 314 315 317 318 317 317 317 316 315 314 312 313 313 309 303 304 306 302 301 305 309 310 310 309 308 309 315 322 326 322 316 308 292 297 313 296 284 305 315 309 316 329 333 333 334 335 335 335 334 334 333 332 330 329 327 325
296 298 301 306 307 307 307 309 312 315 315 318 321 322 322 321 322 324 324 324 325 325 326 328 328 327 325 323 321 321 320 318 318 320 320 319 320 320 319 318 317 316 317 317 315 312 307 306 308 309 312 315 315 315 317 315 314 317 322 330 336 337 336 325 319 328 325 295 300 322 324 313 319 330 331 332 335 334 333 332 331 331 331 330 330 329 328 326
294 295 299 303 305 306 308 310 316 319 320 321 323 323 323 323 324 326 325 326 327 328 328 330 328 326 325 323 321 321 320 320 322 322 321 322 322 321 320 319 318 319 319 316 315 315 310 307 311 312 314 321 323 324 325 323 320 322 325 338 348 346 343 336 335 340 331 317 323 330 324 319 326 329 326 330 332 331 330 329 328 329 331 331 331 330 328 325
291 293 297 302 304 308 311 315 320 324 323 323 323 323 324 325 327 328 327 328 330 331 330 329 329 328 326 324 322 322 321 322 323 322 323 322 322 321 320 319 318 318 317 316 317 318 312 309 314 314 314 323 332 330 328 324 320 320 313 309 340 344 345 342 341 340 336 332 333 329 321 320 323 323 324 327 328 328 328 327 328 330 331 331 331 329 325 324
289 293 300 307 311 314 317 319 323 325 324 322 323 324 325 328 330 330 330 331 332 333 332 332 331 330 328 325 324 324 323 324 324 323 322 321 321 321 318 316 318 317 319 322 321 322 319 314 318 318 312 319 330 329 327 322 316 315 298 314 332 344 343 342 340 339 339 336 333 328 321 319 320 322 322 322 323 325 327 328 330 332 333 333 329 325 325 328
294 301 310 317 321 322 322 323 325 326 326 325 327 328 329 332 334 334 335 336 336 336 335 334 333 331 329 328 327 328 327 326 326 323 322 321 319 320 318 318 321 323 327 332 328 328 328 322 324 321 308 313 325 327 326 322 311 345 332 307 323 336 334 334 333 333 337 337 330 321 314 314 319 322 321 320 323 325 327 329 331 333 334 331 326 326 330 334